This demonstration page uses our WeatherBlox Daily Observations layout. Learn more.

39.51506, -84.39828

Hourly Observations for November 18, 2019

Temp ( °F °C ) Dew Point ( °F °C ) Humidity (%) Winds ( mph kmh ) Pressure ( in mb ) Visibility ( mi km ) Precip ( " mm )
12:15 am 00:15 Clear 34 0.9 31 -0.5 90 90 Calm 29.89 1012 10 16.0934 0 0
12:35 am 00:35 Clear 33 0.8 31 -0.7 90 90 Calm 29.89 1012 10 16.0934 0 0
12:55 am 00:55 Clear 33 0.8 31 -0.3 92 92 Calm 29.89 1012 10 16.0934 0 0
1:15 am 01:15 Clear 32 -0.1 30 -1.1 93 93 Calm 29.89 1012 10 16.0934 0 0
1:35 am 01:35 Clear 32 -0.2 30 -1 94 94 Calm 29.88 1012 10 16.0934 0 0
1:55 am 01:55 Clear 32 -0.1 30 -1 94 94 Calm 29.87 1011 10 16.0934 0 0
2:15 am 02:15 Clear 30 -0.9 29 -1.4 96 96 Calm 29.87 1011 7 11.26538 0 0
2:35 am 02:35 Clear 31 -0.6 30 -1.2 96 96 Calm 29.86 1011 7 11.26538 0 0
2:50 am 02:50 Clear 31 -0.6 30 -1.3 95 95 Calm 29.86 1011 7 11.26538 0 0
3:15 am 03:15 Clear 30 -1.1 29 -1.9 94 94 Calm 29.86 1011 7 11.26538 0 0
3:35 am 03:35 Clear with Mist and Fog 29 -1.5 28 -2.1 96 96 Calm 29.86 1011 7 11.26538 0 0
3:55 am 03:55 Clear with Mist and Fog 29 -1.9 28 -2.4 96 96 Calm 29.85 1011 5 8.0467 0 0
4:15 am 04:15 Clear with Mist and Fog 28 -2.4 27 -2.9 96 96 Calm 29.84 1011 5 8.0467 0 0
4:35 am 04:35 Clear with Mist and Fog 29 -1.9 28 -2.3 97 97 Calm 29.85 1011 5 8.0467 0 0
4:55 am 04:55 Clear with Mist and Fog 28 -2.1 27 -2.6 96 96 Calm 29.85 1011 4 6.43736 0 0
5:15 am 05:15 Clear with Mist and Fog 28 -2.1 28 -2.5 97 97 Calm 29.84 1011 5 8.0467 0 0
5:35 am 05:35 Clear with Mist and Fog 29 -1.5 28 -2 96 96 Calm 29.85 1011 5 8.0467 0 0
5:55 am 05:55 Clear with Mist and Fog 30 -1.3 29 -1.9 96 96 Calm 29.84 1010 7 11.26538 0 0
6:15 am 06:15 Partly Cloudy with Mist and Fog 30 -1.3 28 -2.1 94 94 Calm 29.84 1010 7 11.26538 0 0
6:35 am 06:35 Mostly Cloudy with Mist and Fog 29 -1.5 28 -2.1 96 96 Calm 29.85 1011 5 8.0467 0 0
6:55 am 06:55 Partly Cloudy with Mist and Fog 29 -1.5 28 -2.3 94 94 Calm 29.85 1011 5 8.0467 0 0
7:15 am 07:15 Clear with Mist and Fog 29 -1.6 28 -2.4 94 94 Calm 29.85 1011 5 8.0467 0 0
7:35 am 07:35 Sunny with Mist and Fog 30 -1.3 29 -1.9 96 96 Calm 29.86 1011 4 6.43736 0 0
7:55 am 07:55 Partly Cloudy with Mist and Fog 29 -1.6 28 -2.1 96 96 Calm 29.86 1011 3.5 5.63269 0 0
8:15 am 08:15 Sunny with Mist and Fog 28 -2 28 -2.4 97 97 Calm 29.86 1011 3.5 5.63269 0 0
8:35 am 08:35 Partly Cloudy with Mist and Fog 29 -1.4 29 -1.7 98 98 Calm 29.87 1011 2 3.21868 0 0
8:55 am 08:55 Mostly Cloudy with Mist and Fog 32 0.2 32 -0.2 97 97 SW 3 6 29.87 1012 3.5 5.63269 0 0
9:15 am 09:15 Cloudy with Mist and Fog 35 1.7 32 0.2 90 90 SSW 3 6 29.86 1011 5 8.0467 0 0
9:35 am 09:35 Cloudy with Mist and Fog 36 2.4 32 0.2 86 86 Calm 29.86 1011 7 11.26538 0 0
9:55 am 09:55 Cloudy with Mist and Fog 37 2.5 32 0.2 85 85 Calm 29.85 1011 7 11.26538 0 0
10:15 am 10:15 Cloudy 37 3 33 0.5 84 84 Calm 29.85 1011 7 11.26538 0 0
10:35 am 10:35 Cloudy 38 3.4 33 0.4 81 81 Calm 29.84 1010 7 11.26538 0 0
10:55 am 10:55 Cloudy 39 3.9 32 0.2 77 77 Calm 29.83 1010 7 11.26538 0 0
11:15 am 11:15 Cloudy 40 4.4 33 0.3 75 75 Calm 29.83 1010 7 11.26538 0 0
11:35 am 11:35 Cloudy 40 4.7 33 0.6 75 75 Calm 29.82 1010 7 11.26538 0 0
11:55 am 11:55 Cloudy 42 5.5 34 0.9 73 73 Calm 29.81 1009 7 11.26538 0 0
12:15 pm 12:15 Cloudy 43 6.2 34 1.1 70 70 Calm 29.8 1009 7 11.26538 0 0
12:35 pm 12:35 Cloudy 44 6.4 34 1.1 69 69 SE 3 6 29.8 1009 7 11.26538 0 0
12:55 pm 12:55 Cloudy 44 6.8 34 1.3 68 68 Calm 29.79 1009 7 11.26538 0 0
1:15 pm 13:15 Cloudy 45 7.1 34 1 65 65 SSW 7 11 29.79 1009 10 16.0934 0 0
1:35 pm 13:35 Cloudy 45 7.2 34 1.1 66 66 WSW 5 7 29.79 1009 7 11.26538 0 0
1:55 pm 13:55 Cloudy 45 7.3 35 1.5 67 67 W 6 9 29.78 1008 7 11.26538 0 0
2:15 pm 14:15 Cloudy 45 7.1 35 1.5 68 68 W 5 7 29.78 1008 7 11.26538 0 0
2:35 pm 14:35 Cloudy 45 7.1 35 1.6 68 68 Calm 29.78 1008 7 11.26538 0 0
2:55 pm 14:55 Cloudy 45 7 35 1.7 69 69 W 5 7 29.78 1008 7 11.26538 0 0
3:15 pm 15:15 Cloudy with Haze 44 6.8 35 1.9 71 71 W 7 11 29.78 1008 7 11.26538 0 0
3:35 pm 15:35 Cloudy with Haze 44 6.5 36 2.1 74 74 W 9 15 29.78 1008 7 11.26538 0 0
3:55 pm 15:55 Cloudy with Haze 44 6.5 36 2.2 74 74 W 6 9 29.78 1008 5 8.0467 0 0
4:15 pm 16:15 Cloudy with Haze 43 6.3 37 2.5 77 77 W 7 11 29.79 1009 5 8.0467 0 0
4:35 pm 16:35 Cloudy with Haze 43 6.1 37 2.6 79 79 W 7 11 29.79 1009 5 8.0467 0 0
4:55 pm 16:55 Cloudy with Haze 43 6 37 2.6 79 79 W 6 9 29.79 1009 5 8.0467 0 0
5:15 pm 17:15 Cloudy with Haze 43 5.9 37 2.8 81 81 W 6 9 29.8 1009 5 8.0467 0 0
5:35 pm 17:35 Cloudy with Haze 42 5.7 37 2.9 82 82 W 9 15 29.81 1009 4 6.43736 0 0
5:55 pm 17:55 Cloudy with Mist and Fog 42 5.3 38 3.2 86 86 W 9 15 29.81 1010 5 8.0467 0 0
6:15 pm 18:15 Cloudy with Mist and Fog 41 5 38 3.4 90 90 WSW 7 11 29.82 1010 4 6.43736 0 0
6:35 pm 18:35 Cloudy with Mist and Fog 41 5.1 37 2.9 86 86 W 7 11 29.82 1010 7 11.26538 0 0
6:55 pm 18:55 Cloudy with Mist and Fog 41 5 37 2.8 86 86 W 8 13 29.83 1010 7 11.26538 0 0
7:15 pm 19:15 Cloudy 40 4.7 37 2.7 87 87 W 3 6 29.82 1010 7 11.26538 0 0
7:35 pm 19:35 Cloudy 40 4.7 37 2.9 88 88 W 5 7 29.83 1010 7 11.26538 0 0
7:55 pm 19:55 Cloudy 41 4.8 37 2.9 88 88 W 6 9 29.83 1010 7 11.26538 0 0
8:15 pm 20:15 Cloudy 40 4.7 37 3 89 89 WSW 8 13 29.83 1010 7 11.26538 0 0
8:35 pm 20:35 Cloudy with Mist and Fog 40 4.7 38 3.1 90 90 W 7 11 29.83 1010 7 11.26538 0 0
8:55 pm 20:55 Cloudy with Mist and Fog 40 4.4 38 3.4 93 93 WSW 5 7 29.83 1010 4 6.43736 0 0
9:15 pm 21:15 Cloudy with Mist and Fog 40 4.4 38 3.3 93 93 WSW 9 15 29.83 1010 5 8.0467 0 0
9:35 pm 21:35 Cloudy with Mist and Fog 40 4.3 38 3.3 93 93 WSW 5 7 29.82 1010 5 8.0467 0 0
9:55 pm 21:55 Cloudy 40 4.4 37 3 91 91 WSW 7 11 29.83 1010 7 11.26538 0 0
10:15 pm 22:15 Cloudy with Mist and Fog 40 4.2 37 2.7 90 90 WSW 6 9 29.82 1010 7 11.26538 0 0
10:35 pm 22:35 Cloudy with Mist and Fog 39 4.1 37 2.6 90 90 WSW 3 6 29.82 1010 7 11.26538 0 0
10:55 pm 22:55 Cloudy with Mist and Fog 39 4.1 37 2.6 90 90 WSW 3 6 29.82 1010 5 8.0467 0 0
11:15 pm 23:15 Cloudy with Mist and Fog 39 4.1 37 2.6 90 90 WSW 3 6 29.83 1010 5 8.0467 0 0
11:35 pm 23:35 Cloudy with Mist and Fog 39 4 37 2.6 91 91 Calm 29.83 1010 5 8.0467 0 0
11:55 pm 23:55 Cloudy with Mist and Fog 39 3.8 37 2.5 91 91 SSW 5 7 29.83 1010 5 8.0467 0 0

Powered by AerisWeather